Regional Weather Roundup
Issued by NWS Cleveland, OH

Home | Current Version | Previous Version | Graphics & Text | Print | Product List | Glossary On
Versions: 1 2 3 4 5 6 7 8 9 10 11 12 13 14 15 16 17 18 19 20 21 22 23 24 25 26 27 28 29 30 31 32 33 34 35 36 37 38 39 40 41 42 43 44 45 46 47 48 49 50
000
ASUS41 KCLE 110210
RWRCLE
OHIO REGIONAL WEATHER ROUNDUP
NATIONAL WEATHER SERVICE CLEVELAND, OH
1000 PM EDT THU JUL 10 2014

NOTE: "FAIR" INDICATES FEW OR NO CLOUDS BELOW 12,000 FEET WITH NO
SIGNIFICANT WEATHER AND/OR OBSTRUCTIONS TO VISIBILITY.

OHZ001>008-015>018-024>027-034-035-043-044-110300-
   NORTHWEST OHIO

CITY           SKY/WX    TMP DP  RH WIND       PRES   REMARKS
DEFIANCE       CLEAR     67  55  65 CALM      30.16R
FINDLAY        CLEAR     70  58  65 E5        30.15R
TOLEDO EXPRESS CLEAR     64  58  80 CALM      30.16R
TOLEDO EXEC    CLEAR     69  57  65 E3        30.17R
LIMA           CLEAR     68  57  68 CALM      30.16R
$$

OHZ009>014-019>023-028>033-038-089-110300-
   NORTHEAST OHIO

CITY           SKY/WX    TMP DP  RH WIND       PRES   REMARKS
CLE-HOPKINS    CLEAR     68  58  70 NE6       30.18R
CLE-LAKEFRONT  CLEAR     70  60  70 NE9       30.14R
CUY CO. ARPT   CLEAR     64  61  88 E7        30.17R
LORAIN-ELYRIA  CLEAR     69  59  70 NE5       30.17R
ASHTABULA      CLEAR     60  55  83 CALM      30.18R
AKRON-CANTON   PTCLDY    69  58  67 NE8       30.16R
WOOSTER        CLEAR     65  58  78 N7        30.17R
MANSFIELD      CLEAR     65  57  75 N5        30.18R
YOUNGSTOWN     MOCLDY    67  57  70 NE7       30.17R
$$

OHZ042-051>053-060>062-070>072-077>081-110300-
  SOUTHWEST OHIO

CITY           SKY/WX    TMP DP  RH WIND       PRES   REMARKS
CINC-COVINGTON PTCLDY    72  55  55 N7        30.14R
CINC-LUNKEN    CLEAR     67  61  81 CALM      30.14R
HAMILTON       CLEAR     69  58  67 N5        30.15R
DAYTON         CLEAR     68  57  68 N5        30.16R
WRIGHT-PAT AFB CLEAR     70  58  66 N3        30.15R
DAYTON GENERAL CLEAR     70  56  61 N7        30.14R
WILMINGTON     CLEAR     67  58  72 N3        30.15R
$$

OHZ036-037-039>041-045>050-054>059-063>069-073>076-082>088-110300-
  CENTRAL AND SOUTHEAST OHIO

CITY           SKY/WX    TMP DP  RH WIND       PRES   REMARKS
COLUMBUS       PTCLDY    74  55  51 N7        30.13R
OSU AIRPORT    CLEAR     69  56  62 N5        30.14R
BOLTON FIELD   CLEAR     70  57  64 N6        30.15R
RICKENBACK AFB PTCLDY    75  50  41 N7        30.13R
NEWARK         CLEAR     71  57  61 CALM      30.13R
MARION         CLEAR     67  60  78 N6        30.16R
LANCASTER      CLEAR     67  60  78 N3        30.14R
ZANESVILLE     CLEAR     71  59  65 CALM      30.13R
NEW PHILLY     CLEAR     71  59  65 N5        30.14R
$$


USA.gov is the U.S. government's official web portal to all federal, state and local government web resources and services.